Home > Time Zones > World Clock > Weather > India > Mau > Past weeks

Flag for India Weather past 2 weeks in Mau, Uttar Pradesh, India

Now
48 °F

Fog.


Feels Like: 48 °F
Forecast: 43 / 67 °F
Wind: 2 mph from South

Location: Varanasi / Babatpur

Current Time: Dec 27, 2014 at 11:28:38 PM

Latest Report: Dec 27, 2014 at 10:00 PM


Visibility: 0 mi

Pressure: 30.09 "Hg

Humidity: 94%

Dew point: 46 °F

Location of MauLocation

Historic Weather in Mau — Graph

°F

Mau temperature yesterday

Maximum temperature yesterday: 68 °F (at 3:00 PM)
Minimum temperature yesterday: 48 °F (at 7:00 AM)
Average temperature yesterday: 56 °F

Past Weeks' High & Low Weather Summary

 TemperatureHumidityPressure
High70 °F (Dec 13, 2:00 PM)100% (Dec 14, 5:00 AM)30.24 "Hg (Dec 14, 5:00 AM)
Low43 °F (Dec 22, 7:00 AM)46% (Dec 17, 2:00 PM)29.95 "Hg (Dec 26, 5:00 PM)
Average57 °F85%30.07 "Hg
* Reported Dec 12 10:00 PM — Dec 27 10:00 PM, Mau, Weather by CustomWeather, © 2014

Note: Actual official high and low records may vary slightly from our data, if they occured in-between our weather recording intervals... More about our weather records

Advertising

Mau weather history for previous 24 hours

 ConditionsComfort  
Time TempWeatherWind HumidityBarometerVisibility
10:00 PM
Dec 27
48 °FFog.2 mph94%30.09 "Hg0 mi
9:00 PM50 °FFog.2 mph88%30.09 "Hg0 mi
8:00 PM52 °FFog.No wind82%30.07 "Hg0 mi
7:00 PM52 °FFog.1 mph82%30.07 "Hg1 mi
6:00 PM54 °FFog.2 mph77%30.07 "Hg1 mi
5:00 PM55 °FFog.No wind77%30.04 "Hg1 mi
4:00 PM55 °FFog.3 mph82%30.04 "Hg1 mi
3:00 PM57 °FFog.5 mph82%30.04 "Hg1 mi
2:00 PM57 °FFog.5 mph82%30.07 "Hg1 mi
1:00 PM57 °FFog.5 mph82%30.07 "Hg1 mi
10:00 AM52 °FFog.5 mph88%30.09 "Hg0 mi
9:00 AM50 °FFog.7 mph88%30.07 "Hg0 mi
8:00 AM48 °FFog.3 mph94%30.04 "Hg0 mi
6:00 AM48 °FFog.2 mph94%29.98 "Hg1 mi
4:00 AM50 °FFog.3 mph88%29.98 "Hg1 mi
12:00 AM54 °FFog.3 mph88%29.98 "Hg1 mi
11:00 PM
Dec 26
55 °FFog.3 mph82%29.98 "Hg1 mi
Weather by CustomWeather, © 2014

See weather overviewHow to use our weather pages